Regional Weather Roundup
Issued by NWS Bismarck, ND

Home | Current Version | Previous Version | Text Only | Print | Product List | Glossary On
Versions: 1 2 3 4 5 6 7 8 9 10 11 12 13 14 15 16 17 18 19 20 21 22 23 24 25 26 27 28 29 30 31 32 33 34 35 36 37 38 39 40 41 42 43 44 45 46 47 48 49 50
000
ASUS43 KBIS 281310
RWRBIS

NWR BROADCAST TEXT
NATIONAL WEATHER SERVICE BISMARCK ND
800 AM CDT FRI AUG 28 2015

NOTE: "FAIR" INDICATES FEW OR NO CLOUDS BELOW 12,000 FEET WITH NO
SIGNIFICANT WEATHER AND/OR OBSTRUCTIONS TO VISIBILITY.


CITY           SKY/WX    TMP DP  RH WIND       PRES   REMARKS
WILLISTON      CLEAR     58  56  93 CALM      29.89R
MINOT          MOCLDY    67  58  72 SW13      29.83R
MINOT AFB      MOCLDY    65  63  93 W8        29.82R
BISMARCK       CLEAR     60  59  96 CALM      29.91S
DICKINSON      CLEAR     59  55  87 SW6       29.92R
GARRISON         N/A     63  60  90 S6        29.88S
HETTINGER ARPT CLEAR     57  55  93 CALM      29.97R
JAMESTOWN      SUNNY     60  58  92 S5        29.89F
CROSBY         FAIR      57  57 100 S3        29.88R
HARVEY         FAIR      64  63  94 SW7       29.86S
HAZEN          FAIR      59  57  94 SW3       29.89S
LINTON         FAIR      57  57 100 SE5       29.94S FOG
OAKES          FOG       63  63 100 S10       29.92S VSB<1/4
RUGBY          FAIR      63  63 100 S5        29.83S
STANLEY        FAIR      61  61 100 W5        29.89R
$$

CITY           SKY/WX    TMP DP  RH WIND       PRES   REMARKS
GRAND FORKS    MOSUNNY   64  62  93 S10       29.84F
GRAND FORKS AF MOSUNNY   64  62  92 S8        29.84F
DEVILS LAKE    MOSUNNY   68  57  68 SW12      29.83F
FARGO          MOSUNNY   65  62  90 S10       29.92R
CAVALIER       FAIR      63  63 100 N3        29.83R
GRAFTON        FAIR      64  64 100 SE5       29.83S
GWINNER          N/A     63  63 100 S8        29.93S
LANGDON        FAIR      63  63 100 S6        29.85R
ROLLA          FAIR      63  63 100 SW10      29.82S
WALHALLA       FAIR      64  64 100 MISG      29.80F
$$

CITY           SKY/WX    TMP DP  RH WIND       PRES   REMARKS
ABERDEEN       MOSUNNY   62  60  93 CALM      29.94R FOG
MOBRIDGE       FOG       67  67 100 S6        29.93R VSB 1/2
BUFFALO          N/A     57  54  89 SW3       29.93S
RAPID CITY     PTCLDY    58  53  84 NW8       30.02R
GLASGOW        MOCLDY    56  51  84 NW5       29.92R
SIDNEY         CLEAR     57  54  88 S5        29.90R
WOLF POINT     PTCLDY    56  52  86 SW6       29.91R
GLENDIVE       CLEAR     57  50  77 CALM      29.95R
MILES CITY     MOCLDY    62  46  55 SW8       29.97R HAZE
BAKER          CLEAR     60  50  69 VRB3      29.99R
$$

CITY           SKY/WX    TMP DP  RH WIND       PRES   REMARKS
BILLINGS       MOCLDY    66  47  50 SW20      30.09R
GREAT FALLS    CLOUDY    63  39  41 S10       30.04R HAZE
REGINA         MOCLDY    54  52  94 W6        29.87R FOG
ESTEVAN        CLOUDY    57  55  94 W6        29.87R SMOKE
$$



USA.gov is the U.S. government's official web portal to all federal, state and local government web resources and services.